TimeMDT,TemperatureF,Dew PointF,Humidity,Sea Level PressureIn,VisibilityMPH,Wind Direction,Wind SpeedMPH,Gust SpeedMPH,PrecipitationIn,Events,Conditions,WindDirDegrees,DateUTC
12:15 AM,51.8,15.8,24,29.93,10.0,SSE,3.5,-,N/A,,Clear,160,2013-03-18 06:15:00
12:35 AM,55.4,15.8,21,29.94,10.0,Calm,Calm,-,N/A,,Clear,0,2013-03-18 06:35:00
12:55 AM,51.8,15.8,24,29.94,10.0,Calm,Calm,-,N/A,,Clear,0,2013-03-18 06:55:00
1:15 AM,51.8,15.8,24,29.94,10.0,Calm,Calm,-,N/A,,Clear,0,2013-03-18 07:15:00
1:35 AM,51.8,15.8,24,29.95,10.0,Calm,Calm,-,N/A,,Clear,0,2013-03-18 07:35:00
1:55 AM,51.8,12.2,21,29.95,10.0,Calm,Calm,-,N/A,,Clear,0,2013-03-18 07:55:00
2:15 AM,53.6,14.0,21,29.96,10.0,NW,3.5,-,N/A,,Clear,320,2013-03-18 08:15:00
2:35 AM,53.6,14.0,21,29.96,10.0,Calm,Calm,-,N/A,,Clear,0,2013-03-18 08:35:00
2:55 AM,51.8,15.8,24,29.96,10.0,Calm,Calm,-,N/A,,Clear,0,2013-03-18 08:55:00
3:15 AM,50.0,15.8,26,29.96,10.0,Calm,Calm,-,N/A,,Clear,0,2013-03-18 09:15:00
3:35 AM,48.2,15.8,27,29.96,10.0,Calm,Calm,-,N/A,,Clear,0,2013-03-18 09:35:00
3:55 AM,46.4,12.2,25,29.97,10.0,SE,8.1,-,N/A,,Clear,140,2013-03-18 09:55:00
4:15 AM,46.4,14.0,27,29.97,10.0,SSE,6.9,-,N/A,,Clear,150,2013-03-18 10:15:00
4:35 AM,50.0,14.0,24,29.97,10.0,SSE,3.5,-,N/A,,Clear,150,2013-03-18 10:35:00
4:55 AM,46.4,14.0,27,29.97,10.0,SE,4.6,-,N/A,,Clear,130,2013-03-18 10:55:00
5:15 AM,50.0,12.2,22,29.97,10.0,NNW,3.5,-,N/A,,Clear,330,2013-03-18 11:15:00
5:35 AM,48.2,15.8,27,29.97,10.0,ESE,4.6,-,N/A,,Clear,120,2013-03-18 11:35:00
5:55 AM,46.4,15.8,29,29.98,10.0,South,4.6,-,N/A,,Clear,180,2013-03-18 11:55:00
6:15 AM,44.6,14.0,29,29.99,10.0,Calm,Calm,-,N/A,,Clear,0,2013-03-18 12:15:00
6:35 AM,46.4,14.0,27,29.99,10.0,SE,3.5,-,N/A,,Clear,140,2013-03-18 12:35:00
6:55 AM,44.6,14.0,29,30.00,10.0,SSW,3.5,-,N/A,,Clear,210,2013-03-18 12:55:00
7:15 AM,44.6,14.0,29,30.01,10.0,SSW,3.5,-,N/A,,Clear,210,2013-03-18 13:15:00
7:35 AM,44.6,14.0,29,30.02,10.0,South,4.6,-,N/A,,Clear,170,2013-03-18 13:35:00
7:55 AM,44.6,14.0,29,30.03,10.0,SSE,3.5,-,N/A,,Clear,150,2013-03-18 13:55:00
8:15 AM,46.4,14.0,27,30.04,10.0,Calm,Calm,-,N/A,,Clear,0,2013-03-18 14:15:00
8:35 AM,46.4,14.0,27,30.05,10.0,ENE,3.5,-,N/A,,Clear,60,2013-03-18 14:35:00
8:55 AM,48.2,15.8,27,30.06,10.0,Calm,Calm,-,N/A,,Clear,0,2013-03-18 14:55:00
9:15 AM,50.0,15.8,26,30.07,10.0,Calm,Calm,-,N/A,,Clear,0,2013-03-18 15:15:00
9:55 AM,53.6,15.8,22,30.09,10.0,SSW,4.6,-,N/A,,Clear,210,2013-03-18 15:55:00
10:15 AM,53.6,15.8,22,30.09,10.0,Calm,Calm,-,N/A,,Clear,0,2013-03-18 16:15:00
10:35 AM,57.2,15.8,20,30.09,10.0,South,3.5,-,N/A,,Clear,170,2013-03-18 16:35:00
10:55 AM,57.2,15.8,20,30.09,10.0,Calm,Calm,-,N/A,,Clear,0,2013-03-18 16:55:00
11:15 AM,60.8,15.8,17,30.09,10.0,SSE,3.5,-,N/A,,Clear,160,2013-03-18 17:15:00
11:35 AM,62.6,15.8,16,30.09,10.0,SSW,4.6,-,N/A,,Clear,200,2013-03-18 17:35:00
11:55 AM,62.6,14.0,15,30.08,10.0,South,4.6,-,N/A,,Clear,170,2013-03-18 17:55:00
12:15 PM,64.4,14.0,14,30.08,10.0,SW,4.6,-,N/A,,Clear,220,2013-03-18 18:15:00
12:35 PM,64.4,15.8,15,30.07,10.0,West,5.8,-,N/A,,Clear,270,2013-03-18 18:35:00
12:55 PM,66.2,15.8,14,30.06,10.0,WNW,12.7,-,N/A,,Clear,290,2013-03-18 18:55:00
1:15 PM,68.0,15.8,13,30.06,10.0,West,9.2,-,N/A,,Clear,260,2013-03-18 19:15:00
1:35 PM,68.0,14.0,12,30.05,10.0,NW,11.5,17.3,N/A,,Clear,320,2013-03-18 19:35:00
1:55 PM,69.8,15.8,13,30.05,10.0,West,5.8,17.3,N/A,,Clear,280,2013-03-18 19:55:00
2:15 PM,69.8,15.8,13,30.04,10.0,NW,8.1,16.1,N/A,,Clear,310,2013-03-18 20:15:00
2:35 PM,69.8,15.8,13,30.03,10.0,WNW,9.2,17.3,N/A,,Clear,300,2013-03-18 20:35:00
2:55 PM,69.8,15.8,13,30.02,10.0,WSW,6.9,18.4,N/A,,Clear,250,2013-03-18 20:55:00
3:15 PM,69.8,15.8,13,30.01,10.0,WSW,13.8,17.3,N/A,,Clear,240,2013-03-18 21:15:00
3:35 PM,69.8,15.8,13,30.01,10.0,SW,11.5,-,N/A,,Clear,220,2013-03-18 21:35:00
3:55 PM,69.8,15.8,13,30.00,10.0,West,4.6,-,N/A,,Clear,260,2013-03-18 21:55:00
4:15 PM,69.8,15.8,13,29.99,10.0,WSW,10.4,-,N/A,,Clear,240,2013-03-18 22:15:00
4:35 PM,69.8,15.8,13,29.99,10.0,West,11.5,-,N/A,,Clear,270,2013-03-18 22:35:00
4:55 PM,69.8,15.8,13,29.98,10.0,West,16.1,-,N/A,,Clear,270,2013-03-18 22:55:00
5:15 PM,69.8,15.8,13,29.98,10.0,West,16.1,23.0,N/A,,Clear,270,2013-03-18 23:15:00
5:35 PM,71.6,15.8,12,29.98,10.0,WSW,12.7,21.9,N/A,,Clear,250,2013-03-18 23:35:00
5:55 PM,69.8,15.8,13,29.98,10.0,West,12.7,17.3,N/A,,Clear,280,2013-03-18 23:55:00
6:15 PM,69.8,14.0,12,29.97,10.0,West,10.4,-,N/A,,Clear,260,2013-03-19 00:15:00
6:35 PM,69.8,14.0,12,29.97,10.0,West,9.2,-,N/A,,Clear,270,2013-03-19 00:35:00
6:55 PM,69.8,12.2,11,29.97,10.0,WSW,10.4,-,N/A,,Clear,250,2013-03-19 00:55:00
7:15 PM,68.0,12.2,12,29.97,10.0,SW,11.5,-,N/A,,Clear,230,2013-03-19 01:15:00
7:35 PM,66.2,12.2,12,29.97,10.0,WSW,9.2,-,N/A,,Clear,250,2013-03-19 01:35:00
7:55 PM,64.4,12.2,13,29.97,10.0,WSW,9.2,-,N/A,,Clear,240,2013-03-19 01:55:00
8:15 PM,64.4,12.2,13,29.98,10.0,WSW,8.1,-,N/A,,Clear,250,2013-03-19 02:15:00
8:35 PM,64.4,12.2,13,29.98,10.0,WSW,6.9,-,N/A,,Clear,240,2013-03-19 02:35:00
8:55 PM,62.6,12.2,14,29.99,10.0,WSW,4.6,-,N/A,,Clear,240,2013-03-19 02:55:00
9:55 PM,60.8,12.2,15,30.00,10.0,Calm,Calm,-,N/A,,Clear,0,2013-03-19 03:55:00
10:15 PM,57.2,12.2,17,30.00,10.0,ESE,4.6,-,N/A,,Clear,120,2013-03-19 04:15:00
10:35 PM,59.0,12.2,16,30.01,10.0,SE,3.5,-,N/A,,Clear,130,2013-03-19 04:35:00
10:55 PM,57.2,14.0,18,30.01,10.0,SSW,4.6,-,N/A,,Clear,200,2013-03-19 04:55:00
11:15 PM,55.4,15.8,21,30.01,10.0,South,4.6,-,N/A,,Clear,190,2013-03-19 05:15:00
11:35 PM,55.4,15.8,21,30.01,10.0,South,3.5,-,N/A,,Clear,170,2013-03-19 05:35:00
11:55 PM,55.4,15.8,21,30.01,10.0,South,3.5,-,N/A,,Clear,190,2013-03-19 05:55:00